BEIDOU-2 G6

Last updated on Thu Oct 30 2025 00:02:49 GMT+0000 (Coordinated Universal Time)

1 38953U 12059A 25302.48771780 -.00000163 00000+0 00000+0 0 9998 2 38953 3.8315 75.9317 0006409 299.2882 282.5180 1.00270475 47598
UTC large
Height (km)
Speed (km/s)
/
Latitude / Longitude
Inclination (degrees)
Orbital Period (minutes)
Azimuth
Elevation
Range (km)
Doppler Factor

Next 0 passes for location: London (51.5072 / 0.1276)

Sorry there are no passes over London.